Bluefield, WV

11:14 PM EDT on June 22, 2017 (GMT -0400)
Mercer County

Weather History for KBLF - March, 2014

Change the Weather History Date:

Tuesday, March 11, 2014

  Actual Average Record
Temperature  
Mean Temperature 60 °F 44 °F  
Max Temperature 70 °F 53 °F 76 °F (2006)
Min Temperature 49 °F 35 °F 13 °F (1998)
Degree Days  
Heating Degree Days 5 21  
Month to date heating degree days 238 252  
Since 1 July heating degree days 3873 3745  
Cooling Degree Days 0 0  
Month to date cooling degree days 0 0  
Year to date cooling degree days 0 0  
Growing Degree Days 9 (Base 50)    
Moisture  
Dew Point 33 °F    
Average Humidity 41    
Maximum Humidity 61    
Minimum Humidity 20    
Precipitation  
Precipitation 0.00 in 0.12 in 1.35 in (1963)
Month to date precipitation 0.92 1.22  
Year to date precipitation 5.05 6.88  
Snow  
Snow 0.00 in - - ()
Month to date snowfall 3.2  
Since 1 July snowfall 40.8  
Snow Depth 0.00 in    
Sea Level Pressure  
Sea Level Pressure 29.74 in    
Wind  
Wind Speed 9 mph (West)    
Max Wind Speed 16 mph    
Max Gust Speed 23 mph    
Visibility 10 miles    
Events      
T = Trace of Precipitation, MM = Missing Value Source: NWS Daily Summary

Daily Weather History Graph

Daily Weather History Graph

Search for Another Location

Airport or City:

Trip Planner

Search our weather history database for the weather conditions in past years. The results will help you decide how hot, cold, wet, or windy it might be!

Date:

Astronomy

Mar. 11, 2014 Rise Set
Actual Time 7:41 AM EDT 7:28 PM EDT
Civil Twilight 7:15 AM EDT 7:54 PM EDT
Nautical Twilight 6:45 AM EDT 8:24 PM EDT
Astronomical Twilight 6:15 AM EDT 8:55 PM EDT
Moon 3:08 PM EDT (3/11) 4:29 AM EDT (3/11)
Length of Visible Light 12h 38m
Length of Day
11h 46m
Waxing Gibbous, 78% of the Moon is Illuminated
Mar 11
Waxing Gibbous
Mar 16
Full
Mar 23
Last Quarter
Mar 30
New
Apr 7
First Quarter

Hourly Weather History & Observations

Time (EDT) Temp. Dew Point Humidity Pressure Visibility Wind Dir Wind Speed Gust Speed Precip Events Conditions
12:52 AM 53.1 °F 37.0 °F 55% 29.81 in 10.0 mi West 12.7 mph - N/A   Clear
1:52 AM 52.0 °F 37.9 °F 59% 29.81 in 10.0 mi West 12.7 mph - N/A   Clear
2:52 AM 52.0 °F 37.9 °F 59% 29.80 in 10.0 mi West 12.7 mph - N/A   Clear
3:52 AM 51.1 °F 37.0 °F 59% 29.79 in 10.0 mi West 10.4 mph - N/A   Clear
4:52 AM 51.1 °F 36.0 °F 56% 29.77 in 10.0 mi West 6.9 mph - N/A   Clear
5:52 AM 50.0 °F 35.1 °F 57% 29.77 in 10.0 mi West 9.2 mph - N/A   Clear
6:52 AM 48.9 °F 35.1 °F 59% 29.77 in 10.0 mi West 8.1 mph - N/A   Clear
7:52 AM 48.9 °F 35.1 °F 59% 29.79 in 10.0 mi West 9.2 mph - N/A   Clear
8:52 AM 51.1 °F 36.0 °F 56% 29.81 in 10.0 mi West 9.2 mph - N/A   Clear
9:52 AM 55.0 °F 37.0 °F 51% 29.80 in 10.0 mi West 11.5 mph - N/A   Clear
10:52 AM 57.0 °F 33.1 °F 40% 29.80 in 10.0 mi West 12.7 mph 20.7 mph N/A   Clear
11:52 AM 60.1 °F 33.1 °F 36% 29.78 in 10.0 mi West 12.7 mph - N/A   Clear
12:52 PM 64.0 °F 34.0 °F 33% 29.74 in 10.0 mi West 10.4 mph - N/A   Clear
1:52 PM 68.0 °F 32.0 °F 26% 29.72 in 10.0 mi SW 11.5 mph 17.3 mph N/A   Clear
2:52 PM 66.9 °F 28.9 °F 24% 29.69 in 10.0 mi West 5.8 mph - N/A   Clear
3:52 PM 70.0 °F 27.0 °F 20% 29.68 in 10.0 mi WSW 13.8 mph 19.6 mph N/A   Clear
4:52 PM 69.1 °F 27.0 °F 21% 29.68 in 10.0 mi West 10.4 mph - N/A   Clear
5:52 PM 69.1 °F 28.0 °F 22% 29.67 in 10.0 mi West 5.8 mph - N/A   Clear
6:52 PM 66.9 °F 28.9 °F 24% 29.68 in 10.0 mi WSW 11.5 mph - N/A   Clear
7:52 PM 61.0 °F 30.0 °F 31% 29.70 in 10.0 mi WSW 5.8 mph - N/A   Clear
8:52 PM 60.1 °F 32.0 °F 35% 29.70 in 10.0 mi SW 6.9 mph - N/A   Clear
9:52 PM 59.0 °F 33.1 °F 38% 29.70 in 10.0 mi SW 6.9 mph - N/A   Clear
10:52 PM 57.9 °F 33.1 °F 39% 29.68 in 10.0 mi SW 4.6 mph - N/A   Clear
11:52 PM 57.0 °F 34.0 °F 42% 29.65 in 10.0 mi WSW 5.8 mph - N/A   Clear